Regional Weather Roundup
Issued by NWS Midland/Odessa, TX

Home | Current Version | Previous Version | Text Only | Print | Product List | Glossary On
Versions: 1 2 3 4 5 6 7 8 9 10 11 12 13 14 15 16 17 18 19 20 21 22 23 24 25 26 27 28 29 30 31 32 33 34 35 36 37 38 39 40 41 42 43 44 45 46 47 48 49 50
000
ASUS44 KMAF 282310
RWRMAF
MIDLAND AREA WEATHER ROUNDUP
NATIONAL WEATHER SERVICE MIDLAND TX
600 PM CDT THU AUG 28 2014

...IN SOUTHWEST TEXAS AND SOUTHEAST NEW MEXICO...

CITY           SKY/WX    TMP DP  RH WIND       PRES   REMARKS
ALPINE         MOSUNNY   82  58  42 E13       30.09S
ANDREWS        PTSUNNY   89  58  35 SE17      29.87F
ARTESIA        NOT AVBL
BIG SPRING     CLOUDY    94  60  31 S13       29.88F
CARLSBAD       MOSUNNY   93  51  23 VRB3      29.89F
DRYDEN           N/A    100  58  24 S10       29.85F
FORT STOCKTON  PTSUNNY   89  57  33 S16       29.91S
GUAD PASS      MOSUNNY   90  44  20 W18G29    30.10F
HOBBS          MOSUNNY   93  46  20 SW9       29.93F
MARFA          PTSUNNY   90  52  27 W15       30.06F
MIDLAND AIRPK  NOT AVBL
MIDLAND INTL   PTSUNNY   94  60  32 E17       29.87S
ODESSA         MOSUNNY   96  53  23 SW12      29.88F THUNDER
PECOS          MOSUNNY   98  55  23 N6        29.84F
PRESIDIO       FAIR      97  56  25 CALM      29.88F
SEMINOLE       PTSUNNY   95  51  22 W8        29.91S
SNYDER         MOSUNNY   95  61  31 S17G24    29.86S
WINK           MOSUNNY  100  52  19 NW9       29.84F
$$
...OTHER STATIONS IN TEXAS...

CITY           SKY/WX    TMP DP  RH WIND       PRES   REMARKS
ABILENE        SUNNY     96  59  29 S13G21    29.84F
AMARILLO       CLOUDY    77  62  59 SE15      29.94R
AUSTIN         MOSUNNY   91  71  51 SE16      29.85S
BROWNSVILLE    MOSUNNY   93  75  55 N7        29.76S HX 104
CORPUS CHRISTI PTSUNNY   89  74  60 E16       29.82F
DALLAS FTW     MOSUNNY   95  63  34 SE17      29.83F
DEL RIO        SUNNY     98  62  30 SE8       29.79F
EL PASO        MOSUNNY   91  49  23 N9        29.98F
HOUSTON INT    PTSUNNY   86  72  62 SE14      29.87F
LUBBOCK        PTSUNNY   76  62  62 S14G24    29.90R
SAN ANGELO     MOSUNNY   95  59  30 E8        29.85F
SAN ANTONIO    MOSUNNY   92  70  48 SE17      29.84S
WACO           MOSUNNY   96  68  39 SE22      29.83F HX 101
WICHITA FALLS  NOT AVBL
$$
...OTHER LOCATIONS IN NEW MEXICO...

CITY           SKY/WX    TMP DP  RH WIND       PRES   REMARKS
ALAMAGORDO     SUNNY     90  39  17 N7G17     30.02F
ALBUQUERQUE    MOSUNNY   82  38  20 NW15      30.11F
CANNON AFB     SUNNY     89  43  20 W20G25    29.96F
CLOVIS           N/A     90  39  17 SW17G26   29.98F
HOLLOMAN AFB   SUNNY     90  41  17 NW8G17    30.00F
ROSWELL        MOSUNNY   92  48  22 SW10      29.93F
RUIDOSO        SUNNY     75  39  27 NW16G23   30.22F
SANTA FE       PTSUNNY   76  41  28 N9        30.14F
TRUTH OR CONSE MOSUNNY   86  45  23 S12       30.05F
TUCUMCARI      SUNNY     92  27   9 W12       29.92F
$$


USA.gov is the U.S. government's official web portal to all federal, state and local government web resources and services.